Time,TemperatureF,DewpointF,PressureIn,WindDirection,WindDirectionDegrees,WindSpeedMPH,WindSpeedGustMPH,Humidity,HourlyPrecipIn,Conditions,Clouds,dailyrainin,SoftwareType,DateUTC
2013-02-06 00:01:00,20.7,19.0,29.97,SW,224,0.0,-999.0,91,-99.99,,,0.00,weatherlink.com 1.10,2013-02-06 05:01:00,
2013-02-06 00:16:00,20.8,19.0,29.96,SW,224,0.0,-999.0,91,-99.99,,,0.00,weatherlink.com 1.10,2013-02-06 05:16:00,
2013-02-06 00:31:00,20.8,19.0,29.97,SW,224,0.0,-999.0,91,-99.99,,,0.00,weatherlink.com 1.10,2013-02-06 05:31:00,
2013-02-06 00:46:00,20.8,19.0,29.96,SW,224,0.0,-999.0,91,-99.99,,,0.00,weatherlink.com 1.10,2013-02-06 05:46:00,
2013-02-06 01:01:00,20.9,19.0,29.96,SW,224,0.0,-999.0,91,-99.99,,,0.00,weatherlink.com 1.10,2013-02-06 06:01:00,
2013-02-06 01:16:00,20.9,19.0,29.96,SW,224,0.0,-999.0,92,-99.99,,,0.00,weatherlink.com 1.10,2013-02-06 06:16:00,
2013-02-06 01:31:00,20.9,19.0,29.96,SW,224,0.0,-999.0,92,-99.99,,,0.00,weatherlink.com 1.10,2013-02-06 06:31:00,
2013-02-06 01:46:00,21.0,19.0,29.96,SW,224,0.0,-999.0,92,-99.99,,,0.00,weatherlink.com 1.10,2013-02-06 06:46:00,
2013-02-06 02:01:00,21.0,19.0,29.96,SW,224,0.0,-999.0,92,-99.99,,,0.00,weatherlink.com 1.10,2013-02-06 07:01:00,
2013-02-06 02:16:00,21.0,19.0,29.95,SW,224,0.0,-999.0,92,-99.99,,,0.00,weatherlink.com 1.10,2013-02-06 07:16:00,
2013-02-06 02:31:00,20.9,19.0,29.95,SW,224,0.0,-999.0,92,-99.99,,,0.00,weatherlink.com 1.10,2013-02-06 07:31:00,
2013-02-06 02:46:00,20.7,19.0,29.95,SW,224,0.0,-999.0,92,-99.99,,,0.00,weatherlink.com 1.10,2013-02-06 07:46:00,
2013-02-06 03:02:00,20.3,18.0,29.94,SW,224,0.0,-999.0,92,-99.99,,,0.00,weatherlink.com 1.10,2013-02-06 08:02:00,
2013-02-06 03:17:00,19.7,18.0,29.94,SW,224,0.0,-999.0,92,-99.99,,,0.00,weatherlink.com 1.10,2013-02-06 08:17:00,
2013-02-06 03:32:00,19.0,17.0,29.94,SW,224,0.0,-999.0,92,-99.99,,,0.00,weatherlink.com 1.10,2013-02-06 08:32:00,
2013-02-06 03:47:00,18.6,17.0,29.94,SW,224,0.0,-999.0,92,-99.99,,,0.00,weatherlink.com 1.10,2013-02-06 08:47:00,
2013-02-06 04:02:00,18.2,16.0,29.94,SW,224,0.0,-999.0,92,-99.99,,,0.00,weatherlink.com 1.10,2013-02-06 09:02:00,
2013-02-06 04:17:00,18.2,16.0,29.95,SW,224,0.0,-999.0,92,-99.99,,,0.00,weatherlink.com 1.10,2013-02-06 09:17:00,
2013-02-06 04:32:00,18.3,16.0,29.95,SW,224,0.0,-999.0,92,-99.99,,,0.00,weatherlink.com 1.10,2013-02-06 09:32:00,
2013-02-06 04:47:00,18.6,17.0,29.96,SW,224,0.0,-999.0,92,-99.99,,,0.00,weatherlink.com 1.10,2013-02-06 09:47:00,
2013-02-06 05:02:00,18.9,17.0,29.96,SW,224,0.0,-999.0,93,-99.99,,,0.00,weatherlink.com 1.10,2013-02-06 10:02:00,
2013-02-06 05:17:00,19.2,18.0,29.97,SW,224,0.0,-999.0,93,-99.99,,,0.00,weatherlink.com 1.10,2013-02-06 10:17:00,
2013-02-06 05:32:00,19.4,18.0,29.97,SW,224,0.0,-999.0,93,-99.99,,,0.00,weatherlink.com 1.10,2013-02-06 10:32:00,
2013-02-06 05:47:00,19.5,18.0,29.97,SW,224,0.0,-999.0,93,-99.99,,,0.00,weatherlink.com 1.10,2013-02-06 10:47:00,
2013-02-06 06:02:00,19.6,18.0,29.98,SW,224,0.0,-999.0,93,-99.99,,,0.00,weatherlink.com 1.10,2013-02-06 11:02:00,
2013-02-06 06:17:00,19.5,18.0,29.99,SW,224,0.0,-999.0,92,-99.99,,,0.00,weatherlink.com 1.10,2013-02-06 11:17:00,
2013-02-06 06:32:00,19.4,18.0,29.99,SW,224,0.0,-999.0,92,-99.99,,,0.00,weatherlink.com 1.10,2013-02-06 11:32:00,
2013-02-06 06:47:00,19.3,17.0,30.00,SW,224,0.0,-999.0,92,-99.99,,,0.00,weatherlink.com 1.10,2013-02-06 11:47:00,
2013-02-06 07:02:00,19.1,17.0,30.00,SW,224,0.0,-999.0,93,-99.99,,,0.00,weatherlink.com 1.10,2013-02-06 12:02:00,
2013-02-06 07:17:00,18.9,17.0,30.00,SW,224,0.0,-999.0,93,-99.99,,,0.00,weatherlink.com 1.10,2013-02-06 12:17:00,
2013-02-06 07:32:00,18.6,17.0,30.01,SW,224,0.0,-999.0,93,-99.99,,,0.00,weatherlink.com 1.10,2013-02-06 12:32:00,
2013-02-06 07:47:00,18.7,17.0,30.01,SW,228,1.0,-999.0,93,-99.99,,,0.00,weatherlink.com 1.10,2013-02-06 12:47:00,
2013-02-06 08:02:00,19.7,18.0,30.02,WSW,253,0.0,-999.0,94,-99.99,,,0.00,weatherlink.com 1.10,2013-02-06 13:02:00,
2013-02-06 08:17:00,20.3,19.0,30.02,SW,229,0.0,-999.0,94,-99.99,,,0.00,weatherlink.com 1.10,2013-02-06 13:17:00,
2013-02-06 08:32:00,20.9,20.0,30.03,WNW,288,0.0,-999.0,94,-99.99,,,0.00,weatherlink.com 1.10,2013-02-06 13:32:00,
2013-02-06 08:47:00,22.0,21.0,30.03,West,278,1.0,-999.0,94,-99.99,,,0.00,weatherlink.com 1.10,2013-02-06 13:47:00,
2013-02-06 09:02:00,23.7,22.0,30.03,SSW,206,0.0,-999.0,93,-99.99,,,0.00,weatherlink.com 1.10,2013-02-06 14:02:00,
2013-02-06 09:17:00,24.8,23.0,30.03,West,279,2.0,-999.0,91,-99.99,,,0.00,weatherlink.com 1.10,2013-02-06 14:17:00,
2013-02-06 09:32:00,25.9,23.0,30.03,WNW,295,2.0,-999.0,89,-99.99,,,0.00,weatherlink.com 1.10,2013-02-06 14:32:00,
2013-02-06 09:47:00,26.7,23.0,30.03,WNW,283,3.0,-999.0,87,-99.99,,,0.00,weatherlink.com 1.10,2013-02-06 14:47:00,
2013-02-06 10:02:00,27.4,23.0,30.03,West,273,1.0,-999.0,83,-99.99,,,0.00,weatherlink.com 1.10,2013-02-06 15:02:00,
2013-02-06 10:17:00,28.1,23.0,30.02,West,267,3.0,-999.0,81,-99.99,,,0.00,weatherlink.com 1.10,2013-02-06 15:17:00,
2013-02-06 10:32:00,28.6,23.0,30.03,NW,323,2.0,-999.0,78,-99.99,,,0.00,weatherlink.com 1.10,2013-02-06 15:32:00,
2013-02-06 10:47:00,28.7,22.0,30.04,West,278,5.0,-999.0,77,-99.99,,,0.00,weatherlink.com 1.10,2013-02-06 15:47:00,
2013-02-06 11:03:00,28.8,22.0,30.04,WNW,298,3.0,-999.0,77,-99.99,,,0.01,weatherlink.com 1.10,2013-02-06 16:03:00,
2013-02-06 11:18:00,29.3,23.0,30.04,WNW,299,4.0,-999.0,77,-99.99,,,0.01,weatherlink.com 1.10,2013-02-06 16:18:00,
2013-02-06 11:33:00,30.2,24.0,30.04,WNW,286,4.0,-999.0,77,-99.99,,,0.01,weatherlink.com 1.10,2013-02-06 16:33:00,
2013-02-06 11:48:00,29.9,23.0,30.04,West,259,2.0,-999.0,74,-99.99,,,0.01,weatherlink.com 1.10,2013-02-06 16:48:00,
2013-02-06 12:18:00,29.7,22.0,30.03,WNW,289,6.0,-999.0,74,-99.99,,,0.01,weatherlink.com 1.10,2013-02-06 17:18:00,
2013-02-06 12:33:00,30.8,23.0,30.02,West,277,5.0,-999.0,74,-99.99,,,0.01,weatherlink.com 1.10,2013-02-06 17:33:00,
2013-02-06 12:48:00,30.8,23.0,30.03,WNW,286,2.0,-999.0,73,-99.99,,,0.01,weatherlink.com 1.10,2013-02-06 17:48:00,
2013-02-06 13:03:00,30.3,24.0,30.03,NW,312,2.0,-999.0,77,-99.99,,,0.01,weatherlink.com 1.10,2013-02-06 18:03:00,
2013-02-06 13:18:00,31.1,23.0,30.04,West,265,3.0,-999.0,72,-99.99,,,0.01,weatherlink.com 1.10,2013-02-06 18:18:00,
2013-02-06 13:33:00,31.0,24.0,30.04,NW,311,5.0,-999.0,74,-99.99,,,0.01,weatherlink.com 1.10,2013-02-06 18:33:00,
2013-02-06 13:48:00,30.9,23.0,30.04,NE,42,3.0,-999.0,72,-99.99,,,0.01,weatherlink.com 1.10,2013-02-06 18:48:00,
2013-02-06 14:03:00,30.2,22.0,30.05,NNW,343,1.0,-999.0,71,-99.99,,,0.01,weatherlink.com 1.10,2013-02-06 19:03:00,
2013-02-06 14:18:00,30.1,22.0,30.05,West,280,0.0,-999.0,73,-99.99,,,0.01,weatherlink.com 1.10,2013-02-06 19:18:00,
2013-02-06 14:33:00,30.4,21.0,30.06,WNW,287,6.0,-999.0,67,-99.99,,,0.01,weatherlink.com 1.10,2013-02-06 19:33:00,
2013-02-06 14:48:00,31.1,20.0,30.06,West,259,3.0,-999.0,64,-99.99,,,0.01,weatherlink.com 1.10,2013-02-06 19:48:00,
2013-02-06 15:03:00,31.5,19.0,30.06,NW,319,6.0,-999.0,61,-99.99,,,0.01,weatherlink.com 1.10,2013-02-06 20:03:00,
2013-02-06 15:18:00,30.5,18.0,30.06,West,275,8.0,-999.0,61,-99.99,,,0.01,weatherlink.com 1.10,2013-02-06 20:18:00,
2013-02-06 15:33:00,30.8,18.0,30.07,WNW,287,4.0,-999.0,60,-99.99,,,0.01,weatherlink.com 1.10,2013-02-06 20:33:00,
2013-02-06 15:48:00,31.2,18.0,30.08,NW,311,4.0,-999.0,58,-99.99,,,0.01,weatherlink.com 1.10,2013-02-06 20:48:00,
2013-02-06 16:03:00,31.3,17.0,30.08,WNW,303,7.0,-999.0,56,-99.99,,,0.01,weatherlink.com 1.10,2013-02-06 21:03:00,
2013-02-06 16:18:00,30.5,16.0,30.09,WNW,298,0.0,-999.0,54,-99.99,,,0.01,weatherlink.com 1.10,2013-02-06 21:18:00,
2013-02-06 16:33:00,29.8,14.0,30.10,WNW,303,2.0,-999.0,53,-99.99,,,0.01,weatherlink.com 1.10,2013-02-06 21:33:00,
2013-02-06 16:48:00,29.3,14.0,30.11,West,279,5.0,-999.0,54,-99.99,,,0.01,weatherlink.com 1.10,2013-02-06 21:48:00,
2013-02-06 17:04:00,28.8,14.0,30.12,West,274,5.0,-999.0,55,-99.99,,,0.01,weatherlink.com 1.10,2013-02-06 22:04:00,
2013-02-06 17:19:00,28.1,13.0,30.13,WNW,295,4.0,-999.0,54,-99.99,,,0.01,weatherlink.com 1.10,2013-02-06 22:19:00,
2013-02-06 17:34:00,27.4,13.0,30.14,WNW,289,4.0,-999.0,55,-99.99,,,0.01,weatherlink.com 1.10,2013-02-06 22:34:00,
2013-02-06 17:49:00,26.9,12.0,30.15,NW,315,2.0,-999.0,54,-99.99,,,0.01,weatherlink.com 1.10,2013-02-06 22:49:00,
2013-02-06 18:04:00,26.5,12.0,30.16,WNW,284,2.0,-999.0,54,-99.99,,,0.01,weatherlink.com 1.10,2013-02-06 23:04:00,
2013-02-06 18:19:00,26.0,11.0,30.17,WNW,296,4.0,-999.0,54,-99.99,,,0.01,weatherlink.com 1.10,2013-02-06 23:19:00,
2013-02-06 18:34:00,25.7,11.0,30.18,WNW,302,3.0,-999.0,53,-99.99,,,0.01,weatherlink.com 1.10,2013-02-06 23:34:00,
2013-02-06 18:49:00,25.3,10.0,30.20,WNW,292,2.0,-999.0,53,-99.99,,,0.01,weatherlink.com 1.10,2013-02-06 23:49:00,
2013-02-06 19:04:00,24.9,10.0,30.20,WNW,297,4.0,-999.0,53,-99.99,,,0.01,weatherlink.com 1.10,2013-02-07 00:04:00,
2013-02-06 19:19:00,24.5,9.0,30.21,WNW,292,3.0,-999.0,52,-99.99,,,0.01,weatherlink.com 1.10,2013-02-07 00:19:00,
2013-02-06 19:34:00,24.1,8.0,30.22,WNW,286,3.0,-999.0,50,-99.99,,,0.01,weatherlink.com 1.10,2013-02-07 00:34:00,
2013-02-06 19:49:00,23.8,8.0,30.23,WNW,283,2.0,-999.0,52,-99.99,,,0.01,weatherlink.com 1.10,2013-02-07 00:49:00,
2013-02-06 20:04:00,23.4,8.0,30.23,WNW,284,4.0,-999.0,52,-99.99,,,0.01,weatherlink.com 1.10,2013-02-07 01:04:00,
2013-02-06 20:19:00,22.9,7.0,30.24,West,276,3.0,-999.0,51,-99.99,,,0.01,weatherlink.com 1.10,2013-02-07 01:19:00,
2013-02-06 20:35:00,22.6,7.0,30.24,WNW,296,2.0,-999.0,51,-99.99,,,0.01,weatherlink.com 1.10,2013-02-07 01:35:00,
2013-02-06 20:50:00,22.1,6.0,30.25,WNW,289,3.0,-999.0,50,-99.99,,,0.01,weatherlink.com 1.10,2013-02-07 01:50:00,
2013-02-06 21:05:00,21.8,6.0,30.26,WNW,291,0.0,-999.0,50,-99.99,,,0.01,weatherlink.com 1.10,2013-02-07 02:05:00,
2013-02-06 21:20:00,21.3,5.0,30.27,WNW,283,0.0,-999.0,50,-99.99,,,0.01,weatherlink.com 1.10,2013-02-07 02:20:00,
2013-02-06 21:35:00,21.1,5.0,30.28,WNW,294,0.0,-999.0,50,-99.99,,,0.01,weatherlink.com 1.10,2013-02-07 02:35:00,
2013-02-06 21:50:00,20.8,5.0,30.29,West,276,2.0,-999.0,50,-99.99,,,0.01,weatherlink.com 1.10,2013-02-07 02:50:00,
2013-02-06 22:05:00,20.5,5.0,30.30,WNW,290,3.0,-999.0,51,-99.99,,,0.01,weatherlink.com 1.10,2013-02-07 03:05:00,
2013-02-06 22:20:00,20.3,4.0,30.30,WNW,296,6.0,-999.0,50,-99.99,,,0.01,weatherlink.com 1.10,2013-02-07 03:20:00,
2013-02-06 22:35:00,20.1,5.0,30.30,WNW,294,3.0,-999.0,51,-99.99,,,0.01,weatherlink.com 1.10,2013-02-07 03:35:00,
2013-02-06 22:50:00,19.9,4.0,30.30,WNW,287,2.0,-999.0,51,-99.99,,,0.01,weatherlink.com 1.10,2013-02-07 03:50:00,
2013-02-06 23:05:00,19.5,4.0,30.30,WNW,292,2.0,-999.0,52,-99.99,,,0.01,weatherlink.com 1.10,2013-02-07 04:05:00,
2013-02-06 23:20:00,19.2,4.0,30.31,NW,311,1.0,-999.0,52,-99.99,,,0.01,weatherlink.com 1.10,2013-02-07 04:20:00,
2013-02-06 23:35:00,18.8,4.0,30.31,NW,311,1.0,-999.0,53,-99.99,,,0.01,weatherlink.com 1.10,2013-02-07 04:35:00,
2013-02-06 23:51:00,18.6,4.0,30.31,NW,304,0.0,-999.0,53,-99.99,,,0.01,weatherlink.com 1.10,2013-02-07 04:51:00,